Time,TemperatureF,DewpointF,PressureIn,WindDirection,WindDirectionDegrees,WindSpeedMPH,WindSpeedGustMPH,Humidity,HourlyPrecipIn,Conditions,Clouds,dailyrainin,SoftwareType,DateUTC
2013-07-08 00:00:00,77.4,68.5,29.87,East,90,0.0,0.0,74,0.00,,,0.00,VWS V14.01,2013-07-08 05:00:00,
2013-07-08 00:04:00,77.2,68.3,29.87,East,90,0.0,0.0,74,0.00,,CLR,0.00,VWS V14.01,2013-07-08 05:04:00,
2013-07-08 00:09:00,76.9,68.4,29.87,East,90,0.0,0.0,75,0.00,,CLR,0.00,VWS V14.01,2013-07-08 05:09:00,
2013-07-08 00:14:00,76.7,68.2,29.87,East,90,0.0,0.0,75,0.00,,CLR,0.00,VWS V14.01,2013-07-08 05:14:00,
2013-07-08 00:20:00,76.5,68.4,29.87,East,90,0.0,0.0,76,0.00,,CLR,0.00,VWS V14.01,2013-07-08 05:20:00,
2013-07-08 00:25:00,76.3,68.2,29.87,East,90,0.0,0.0,76,0.00,,CLR,0.00,VWS V14.01,2013-07-08 05:25:00,
2013-07-08 00:30:00,76.1,68.4,29.87,East,90,0.0,0.0,77,0.00,,CLR,0.00,VWS V14.01,2013-07-08 05:30:00,
2013-07-08 00:35:00,76.0,68.3,29.87,East,90,0.0,0.0,77,0.00,,CLR,0.00,VWS V14.01,2013-07-08 05:35:00,
2013-07-08 00:40:00,75.9,68.2,29.87,East,90,0.0,0.0,77,0.00,,CLR,0.00,VWS V14.01,2013-07-08 05:40:00,
2013-07-08 00:45:00,75.8,68.1,29.87,East,90,0.0,0.0,77,0.00,,CLR,0.00,VWS V14.01,2013-07-08 05:45:00,
2013-07-08 00:50:00,75.7,68.4,29.87,East,90,0.0,0.0,78,0.00,,CLR,0.00,VWS V14.01,2013-07-08 05:50:00,
2013-07-08 00:55:00,75.5,68.2,29.87,East,90,0.0,0.0,78,0.00,,CLR,0.00,VWS V14.01,2013-07-08 05:55:00,
2013-07-08 01:00:00,75.4,68.4,29.87,East,90,0.0,0.0,79,0.00,,CLR,0.00,VWS V14.01,2013-07-08 06:00:00,
2013-07-08 01:05:00,75.2,68.2,29.87,East,90,0.0,0.0,79,0.00,,CLR,0.00,VWS V14.01,2013-07-08 06:05:00,
2013-07-08 01:10:00,75.1,68.2,29.87,East,90,0.0,0.0,79,0.00,,CLR,0.00,VWS V14.01,2013-07-08 06:10:00,
2013-07-08 01:16:00,74.9,67.9,29.87,East,90,0.0,0.0,79,0.00,,CLR,0.00,VWS V14.01,2013-07-08 06:16:00,
2013-07-08 01:21:00,74.8,68.2,29.87,East,90,0.0,0.0,80,0.00,,CLR,0.00,VWS V14.01,2013-07-08 06:21:00,
2013-07-08 01:26:00,74.7,68.1,29.88,East,90,0.0,0.0,80,0.00,,CLR,0.00,VWS V14.01,2013-07-08 06:26:00,
2013-07-08 01:30:00,74.6,68.0,29.88,East,90,0.0,0.0,80,0.00,,,0.00,VWS V14.01,2013-07-08 06:30:00,
2013-07-08 01:31:00,74.6,68.0,29.88,East,90,0.0,0.0,80,0.00,,CLR,0.00,VWS V14.01,2013-07-08 06:31:00,
2013-07-08 01:36:00,74.4,68.2,29.88,East,91,0.0,0.0,81,0.00,,CLR,0.00,VWS V14.01,2013-07-08 06:36:00,
2013-07-08 01:41:00,74.3,68.1,29.87,East,91,0.0,0.0,81,0.00,,CLR,0.00,VWS V14.01,2013-07-08 06:41:00,
2013-07-08 01:46:00,74.2,68.0,29.87,East,91,0.0,0.0,81,0.00,,CLR,0.00,VWS V14.01,2013-07-08 06:46:00,
2013-07-08 01:51:00,74.1,67.9,29.87,East,91,0.0,0.0,81,0.00,,CLR,0.00,VWS V14.01,2013-07-08 06:51:00,
2013-07-08 01:56:00,73.9,68.1,29.87,East,91,0.0,0.0,82,0.00,,CLR,0.00,VWS V14.01,2013-07-08 06:56:00,
2013-07-08 02:00:00,73.9,68.1,29.87,East,91,0.0,0.0,82,0.00,,,0.00,VWS V14.01,2013-07-08 07:00:00,
2013-07-08 02:01:00,73.8,68.0,29.87,East,91,0.0,0.0,82,0.00,,CLR,0.00,VWS V14.01,2013-07-08 07:01:00,
2013-07-08 02:07:00,73.7,67.9,29.87,East,91,0.0,0.0,82,0.00,,CLR,0.00,VWS V14.01,2013-07-08 07:07:00,
2013-07-08 02:12:00,73.6,67.8,29.87,East,91,0.0,0.0,82,0.00,,CLR,0.00,VWS V14.01,2013-07-08 07:12:00,
2013-07-08 02:17:00,73.5,67.7,29.87,East,91,0.0,0.0,82,0.00,,CLR,0.00,VWS V14.01,2013-07-08 07:17:00,
2013-07-08 02:22:00,73.5,68.0,29.88,East,91,0.0,0.0,83,0.00,,CLR,0.00,VWS V14.01,2013-07-08 07:22:00,
2013-07-08 02:27:00,73.5,68.0,29.87,East,91,0.0,0.0,83,0.00,,CLR,0.00,VWS V14.01,2013-07-08 07:27:00,
2013-07-08 02:30:00,73.5,68.0,29.87,East,91,0.0,0.0,83,0.00,,,0.00,VWS V14.01,2013-07-08 07:30:00,
2013-07-08 02:32:00,73.4,67.9,29.87,East,91,0.0,0.0,83,0.00,,CLR,0.00,VWS V14.01,2013-07-08 07:32:00,
2013-07-08 02:37:00,73.3,67.8,29.87,East,91,0.0,0.0,83,0.00,,CLR,0.00,VWS V14.01,2013-07-08 07:37:00,
2013-07-08 02:42:00,73.2,67.7,29.88,East,91,0.0,0.0,83,0.00,,CLR,0.00,VWS V14.01,2013-07-08 07:42:00,
2013-07-08 02:47:00,73.1,68.0,29.87,East,91,0.0,0.0,84,0.00,,CLR,0.00,VWS V14.01,2013-07-08 07:47:00,
2013-07-08 02:52:00,73.0,67.9,29.87,East,91,0.0,0.0,84,0.00,,CLR,0.00,VWS V14.01,2013-07-08 07:52:00,
2013-07-08 02:58:00,72.9,67.8,29.87,East,91,0.0,0.0,84,0.00,,CLR,0.00,VWS V14.01,2013-07-08 07:58:00,
2013-07-08 03:00:00,72.9,67.8,29.86,East,91,0.0,0.0,84,0.00,,,0.00,VWS V14.01,2013-07-08 08:00:00,
2013-07-08 03:03:00,72.9,67.8,29.86,East,91,0.0,0.0,84,0.00,,CLR,0.00,VWS V14.01,2013-07-08 08:03:00,
2013-07-08 03:08:00,72.8,67.7,29.87,East,91,0.0,0.0,84,0.00,,CLR,0.00,VWS V14.01,2013-07-08 08:08:00,
2013-07-08 03:13:00,72.7,67.6,29.86,East,91,0.0,0.0,84,0.00,,CLR,0.00,VWS V14.01,2013-07-08 08:13:00,
2013-07-08 03:18:00,72.6,67.8,29.87,East,91,0.0,0.0,85,0.00,,CLR,0.00,VWS V14.01,2013-07-08 08:18:00,
2013-07-08 03:23:00,72.4,67.6,29.87,East,91,0.0,0.0,85,0.00,,CLR,0.00,VWS V14.01,2013-07-08 08:23:00,
2013-07-08 03:28:00,72.3,67.9,29.87,East,91,0.0,0.0,86,0.00,,CLR,0.00,VWS V14.01,2013-07-08 08:28:00,
2013-07-08 03:30:00,72.3,67.9,29.87,East,91,0.0,0.0,86,0.00,,,0.00,VWS V14.01,2013-07-08 08:30:00,
2013-07-08 03:33:00,72.2,67.4,29.87,East,91,0.0,0.0,85,0.00,,CLR,0.00,VWS V14.01,2013-07-08 08:33:00,
2013-07-08 03:38:00,72.1,67.7,29.87,East,91,0.0,0.0,86,0.00,,CLR,0.00,VWS V14.01,2013-07-08 08:38:00,
2013-07-08 03:43:00,72.0,67.6,29.87,East,91,0.0,0.0,86,0.00,,CLR,0.00,VWS V14.01,2013-07-08 08:43:00,
2013-07-08 03:48:00,71.9,67.5,29.87,East,91,0.0,0.0,86,0.00,,CLR,0.00,VWS V14.01,2013-07-08 08:48:00,
2013-07-08 03:54:00,71.8,67.7,29.87,East,91,0.0,0.0,87,0.00,,CLR,0.00,VWS V14.01,2013-07-08 08:54:00,
2013-07-08 03:59:00,71.7,67.6,29.87,East,91,0.0,0.0,87,0.00,,CLR,0.00,VWS V14.01,2013-07-08 08:59:00,
2013-07-08 04:00:00,71.7,67.6,29.87,East,91,0.0,0.0,87,0.00,,,0.00,VWS V14.01,2013-07-08 09:00:00,
2013-07-08 04:04:00,71.6,67.5,29.87,East,91,0.0,0.0,87,0.00,,CLR,0.00,VWS V14.01,2013-07-08 09:04:00,
2013-07-08 04:09:00,71.6,67.5,29.88,East,91,0.0,0.0,87,0.00,,CLR,0.00,VWS V14.01,2013-07-08 09:09:00,
2013-07-08 04:14:00,71.6,67.5,29.88,East,91,0.0,0.0,87,0.00,,CLR,0.00,VWS V14.01,2013-07-08 09:14:00,
2013-07-08 04:19:00,71.6,67.9,29.88,East,91,0.0,0.0,88,0.00,,CLR,0.00,VWS V14.01,2013-07-08 09:19:00,
2013-07-08 04:24:00,71.5,67.8,29.88,East,91,0.0,0.0,88,0.00,,CLR,0.00,VWS V14.01,2013-07-08 09:24:00,
2013-07-08 04:29:00,71.5,67.8,29.88,East,91,0.0,0.0,88,0.00,,CLR,0.00,VWS V14.01,2013-07-08 09:29:00,
2013-07-08 04:30:00,71.5,67.8,29.88,East,91,0.0,0.0,88,0.00,,,0.00,VWS V14.01,2013-07-08 09:30:00,
2013-07-08 04:34:00,71.5,67.8,29.88,East,91,0.0,0.0,88,0.00,,CLR,0.00,VWS V14.01,2013-07-08 09:34:00,
2013-07-08 04:39:00,71.4,67.7,29.88,East,91,0.0,0.0,88,0.00,,CLR,0.00,VWS V14.01,2013-07-08 09:39:00,
2013-07-08 04:44:00,71.4,67.7,29.88,East,91,0.0,0.0,88,0.00,,CLR,0.00,VWS V14.01,2013-07-08 09:44:00,
2013-07-08 04:50:00,71.3,67.6,29.88,East,91,0.0,0.0,88,0.00,,CLR,0.00,VWS V14.01,2013-07-08 09:50:00,
2013-07-08 04:55:00,71.2,67.5,29.88,East,91,0.0,0.0,88,0.00,,CLR,0.00,VWS V14.01,2013-07-08 09:55:00,
2013-07-08 05:00:00,71.1,67.4,29.88,East,91,0.0,0.0,88,0.00,,CLR,0.00,VWS V14.01,2013-07-08 10:00:00,
2013-07-08 05:05:00,71.0,67.6,29.88,East,91,0.0,0.0,89,0.00,,CLR,0.00,VWS V14.01,2013-07-08 10:05:00,
2013-07-08 05:10:00,70.9,67.5,29.88,East,91,0.0,0.0,89,0.00,,CLR,0.00,VWS V14.01,2013-07-08 10:10:00,
2013-07-08 05:15:00,70.8,67.4,29.88,East,91,0.0,0.0,89,0.00,,CLR,0.00,VWS V14.01,2013-07-08 10:15:00,
2013-07-08 05:20:00,70.7,67.3,29.88,East,91,0.0,0.0,89,0.00,,CLR,0.00,VWS V14.01,2013-07-08 10:20:00,
2013-07-08 05:25:00,70.6,67.2,29.88,East,91,0.0,0.0,89,0.00,,CLR,0.00,VWS V14.01,2013-07-08 10:25:00,
2013-07-08 05:30:00,70.5,67.1,29.88,East,91,0.0,1.0,89,0.00,,CLR,0.00,VWS V14.01,2013-07-08 10:30:00,
2013-07-08 05:35:00,70.5,67.4,29.88,East,91,0.0,1.0,90,0.00,,CLR,0.00,VWS V14.01,2013-07-08 10:35:00,
2013-07-08 05:40:00,70.5,67.4,29.88,East,91,0.0,1.0,90,0.00,,CLR,0.00,VWS V14.01,2013-07-08 10:40:00,
2013-07-08 05:46:00,70.7,67.6,29.88,East,91,0.0,1.0,90,0.00,,CLR,0.00,VWS V14.01,2013-07-08 10:46:00,
2013-07-08 05:51:00,70.9,67.8,29.88,East,91,0.0,1.0,90,0.00,,CLR,0.00,VWS V14.01,2013-07-08 10:51:00,
2013-07-08 05:56:00,71.2,68.1,29.88,East,91,0.0,1.0,90,0.00,,CLR,0.00,VWS V14.01,2013-07-08 10:56:00,
2013-07-08 06:00:00,71.3,67.9,29.88,East,91,0.0,1.0,89,0.00,,,0.00,VWS V14.01,2013-07-08 11:00:00,
2013-07-08 06:01:00,71.3,67.9,29.88,East,91,0.0,0.0,89,0.00,,CLR,0.00,VWS V14.01,2013-07-08 11:01:00,
2013-07-08 06:06:00,71.3,67.9,29.88,East,91,0.0,0.0,89,0.00,,CLR,0.00,VWS V14.01,2013-07-08 11:06:00,
2013-07-08 06:11:00,71.3,67.9,29.88,East,91,0.0,0.0,89,0.00,,CLR,0.00,VWS V14.01,2013-07-08 11:11:00,
2013-07-08 06:16:00,71.3,67.9,29.89,East,91,0.0,0.0,89,0.00,,CLR,0.00,VWS V14.01,2013-07-08 11:16:00,
2013-07-08 06:21:00,71.3,67.9,29.89,East,91,0.0,0.0,89,0.00,,CLR,0.00,VWS V14.01,2013-07-08 11:21:00,
2013-07-08 06:26:00,71.3,67.9,29.89,East,91,0.0,0.0,89,0.00,,CLR,0.00,VWS V14.01,2013-07-08 11:26:00,
2013-07-08 06:30:00,71.3,67.9,29.89,East,91,0.0,0.0,89,0.00,,,0.00,VWS V14.01,2013-07-08 11:30:00,
2013-07-08 06:31:00,71.3,67.9,29.89,East,91,0.0,0.0,89,0.00,,CLR,0.00,VWS V14.01,2013-07-08 11:31:00,
2013-07-08 06:37:00,71.4,68.3,29.90,East,92,0.0,0.0,90,0.00,,CLR,0.00,VWS V14.01,2013-07-08 11:37:00,
2013-07-08 06:42:00,71.5,68.1,29.90,East,92,0.0,0.0,89,0.00,,CLR,0.00,VWS V14.01,2013-07-08 11:42:00,
2013-07-08 06:47:00,71.7,68.3,29.90,East,92,0.0,0.0,89,0.00,,CLR,0.00,VWS V14.01,2013-07-08 11:47:00,
2013-07-08 06:52:00,71.8,68.4,29.89,East,92,0.0,0.0,89,0.00,,CLR,0.00,VWS V14.01,2013-07-08 11:52:00,
2013-07-08 06:57:00,72.0,68.6,29.89,East,92,0.0,0.0,89,0.00,,CLR,0.00,VWS V14.01,2013-07-08 11:57:00,
2013-07-08 07:00:00,72.1,68.7,29.89,East,92,0.0,0.0,89,0.00,,,0.00,VWS V14.01,2013-07-08 12:00:00,
2013-07-08 07:02:00,72.2,68.8,29.89,East,92,0.0,0.0,89,0.00,,CLR,0.00,VWS V14.01,2013-07-08 12:02:00,
2013-07-08 07:07:00,72.5,68.8,29.89,East,92,0.0,0.0,88,0.00,,CLR,0.00,VWS V14.01,2013-07-08 12:07:00,
2013-07-08 07:12:00,72.8,69.0,29.90,East,92,0.0,0.0,88,0.00,,CLR,0.00,VWS V14.01,2013-07-08 12:12:00,
2013-07-08 07:17:00,73.1,69.3,29.90,East,92,0.0,0.0,88,0.00,,CLR,0.00,VWS V14.01,2013-07-08 12:17:00,
2013-07-08 07:23:00,73.3,69.2,29.90,East,92,0.0,0.0,87,0.00,,CLR,0.00,VWS V14.01,2013-07-08 12:23:00,
2013-07-08 07:28:00,73.7,69.6,29.90,East,92,0.0,0.0,87,0.00,,CLR,0.00,VWS V14.01,2013-07-08 12:28:00,
2013-07-08 07:30:00,73.8,69.7,29.90,East,92,0.0,0.0,87,0.00,,,0.00,VWS V14.01,2013-07-08 12:30:00,
2013-07-08 07:33:00,74.0,69.9,29.90,East,92,0.0,0.0,87,0.00,,CLR,0.00,VWS V14.01,2013-07-08 12:33:00,
2013-07-08 07:38:00,74.4,69.9,29.90,East,92,0.0,0.0,86,0.00,,CLR,0.00,VWS V14.01,2013-07-08 12:38:00,
2013-07-08 07:43:00,74.7,70.2,29.90,East,92,0.0,1.0,86,0.00,,CLR,0.00,VWS V14.01,2013-07-08 12:43:00,
2013-07-08 07:48:00,75.0,70.2,29.90,East,92,0.0,1.0,85,0.00,,CLR,0.00,VWS V14.01,2013-07-08 12:48:00,
2013-07-08 07:53:00,75.4,70.6,29.90,East,92,0.0,1.0,85,0.00,,CLR,0.00,VWS V14.01,2013-07-08 12:53:00,
2013-07-08 07:58:00,75.7,70.9,29.90,SE,130,0.0,1.0,85,0.00,,CLR,0.00,VWS V14.01,2013-07-08 12:58:00,
2013-07-08 08:00:00,75.8,70.6,29.90,SE,130,0.0,1.0,84,0.00,,,0.00,VWS V14.01,2013-07-08 13:00:00,
2013-07-08 08:04:00,76.1,70.9,29.90,SE,130,0.0,0.0,84,0.00,,CLR,0.00,VWS V14.01,2013-07-08 13:04:00,
2013-07-08 08:09:00,76.4,70.9,29.90,SE,133,0.0,1.0,83,0.00,,CLR,0.00,VWS V14.01,2013-07-08 13:09:00,
2013-07-08 08:14:00,76.7,71.2,29.91,SSE,165,0.0,1.0,83,0.00,,CLR,0.00,VWS V14.01,2013-07-08 13:14:00,
2013-07-08 08:19:00,76.9,70.6,29.91,South,169,0.0,1.0,81,0.00,,CLR,0.00,VWS V14.01,2013-07-08 13:19:00,
2013-07-08 08:24:00,77.1,71.2,29.91,SSW,196,0.0,1.0,82,0.00,,CLR,0.00,VWS V14.01,2013-07-08 13:24:00,
2013-07-08 08:29:00,77.4,71.1,29.91,South,191,0.0,1.0,81,0.00,,CLR,0.00,VWS V14.01,2013-07-08 13:29:00,
2013-07-08 08:30:00,77.4,71.1,29.91,South,191,0.0,1.0,81,0.00,,,0.00,VWS V14.01,2013-07-08 13:30:00,
2013-07-08 08:34:00,77.6,71.3,29.91,ESE,108,0.0,1.0,81,0.00,,CLR,0.00,VWS V14.01,2013-07-08 13:34:00,
2013-07-08 08:39:00,77.8,71.5,29.92,SSE,152,0.0,1.0,81,0.00,,CLR,0.00,VWS V14.01,2013-07-08 13:39:00,
2013-07-08 08:44:00,78.1,71.4,29.91,SSE,157,0.0,1.0,80,0.00,,CLR,0.00,VWS V14.01,2013-07-08 13:44:00,
2013-07-08 08:50:00,78.4,71.7,29.91,SSE,157,0.0,1.0,80,0.00,,CLR,0.00,VWS V14.01,2013-07-08 13:50:00,
2013-07-08 08:55:00,78.7,72.0,29.92,SSE,157,0.0,1.0,80,0.00,,CLR,0.00,VWS V14.01,2013-07-08 13:55:00,
2013-07-08 09:00:00,79.1,71.7,29.92,SSE,157,0.0,0.0,78,0.00,,CLR,0.00,VWS V14.01,2013-07-08 14:00:00,
2013-07-08 09:05:00,79.4,72.3,29.91,South,169,0.0,3.0,79,0.00,,CLR,0.00,VWS V14.01,2013-07-08 14:05:00,
2013-07-08 09:10:00,79.8,72.3,29.92,South,169,0.0,3.0,78,0.00,,CLR,0.00,VWS V14.01,2013-07-08 14:10:00,
2013-07-08 09:15:00,80.3,72.4,29.92,SSE,155,0.0,3.0,77,0.00,,CLR,0.00,VWS V14.01,2013-07-08 14:15:00,
2013-07-08 09:20:00,80.7,72.4,29.92,SSW,196,0.0,3.0,76,0.00,,CLR,0.00,VWS V14.01,2013-07-08 14:20:00,
2013-07-08 09:25:00,81.3,73.4,29.91,SSW,196,0.0,3.0,77,0.00,,CLR,0.00,VWS V14.01,2013-07-08 14:25:00,
2013-07-08 09:30:00,82.0,73.3,29.91,East,97,2.0,3.0,75,0.00,,CLR,0.00,VWS V14.01,2013-07-08 14:30:00,
2013-07-08 09:35:00,82.6,73.5,29.92,SSW,209,0.0,3.0,74,0.00,,CLR,0.00,VWS V14.01,2013-07-08 14:35:00,
2013-07-08 09:41:00,83.2,74.1,29.92,SSW,211,0.0,3.0,74,0.00,,CLR,0.00,VWS V14.01,2013-07-08 14:41:00,
2013-07-08 09:46:00,83.7,74.1,29.92,WSW,250,0.0,3.0,73,0.00,,CLR,0.00,VWS V14.01,2013-07-08 14:46:00,
2013-07-08 09:51:00,84.3,73.5,29.92,SSE,163,1.0,3.0,70,0.00,,CLR,0.00,VWS V14.01,2013-07-08 14:51:00,
2013-07-08 09:56:00,84.6,74.2,29.92,ESE,107,1.0,3.0,71,0.00,,CLR,0.00,VWS V14.01,2013-07-08 14:56:00,
2013-07-08 10:00:00,84.9,73.6,29.92,SSW,196,0.0,3.0,69,0.00,,,0.00,VWS V14.01,2013-07-08 15:00:00,
2013-07-08 10:01:00,85.0,73.7,29.92,SSE,153,0.0,1.0,69,0.00,,CLR,0.00,VWS V14.01,2013-07-08 15:01:00,
2013-07-08 10:06:00,85.1,72.9,29.92,SSE,164,0.0,2.0,67,0.00,,CLR,0.00,VWS V14.01,2013-07-08 15:06:00,
2013-07-08 10:11:00,85.3,74.0,29.91,SE,142,0.0,2.0,69,0.00,,CLR,0.00,VWS V14.01,2013-07-08 15:11:00,
2013-07-08 10:16:00,85.7,73.0,29.91,SSE,165,0.0,2.0,66,0.00,,CLR,0.00,VWS V14.01,2013-07-08 15:16:00,
2013-07-08 10:22:00,85.9,73.2,29.91,West,263,0.0,3.0,66,0.00,,CLR,0.00,VWS V14.01,2013-07-08 15:22:00,
2013-07-08 10:27:00,86.3,72.7,29.91,South,171,0.0,3.0,64,0.00,,CLR,0.00,VWS V14.01,2013-07-08 15:27:00,
2013-07-08 10:30:00,86.5,72.4,29.91,SSW,193,0.0,4.0,63,0.00,,,0.00,VWS V14.01,2013-07-08 15:30:00,
2013-07-08 10:32:00,86.8,73.2,29.91,SSW,210,0.0,2.0,64,0.00,,CLR,0.00,VWS V14.01,2013-07-08 15:32:00,
2013-07-08 10:37:00,87.1,72.5,29.92,SSE,161,0.0,2.0,62,0.00,,CLR,0.00,VWS V14.01,2013-07-08 15:37:00,
2013-07-08 10:42:00,87.5,71.9,29.91,South,172,0.0,2.0,60,0.00,,CLR,0.00,VWS V14.01,2013-07-08 15:42:00,
2013-07-08 10:47:00,87.8,72.7,29.91,West,281,0.0,5.0,61,0.00,,CLR,0.00,VWS V14.01,2013-07-08 15:47:00,
2013-07-08 10:52:00,87.8,72.2,29.91,SSE,167,0.0,5.0,60,0.00,,CLR,0.00,VWS V14.01,2013-07-08 15:52:00,
2013-07-08 10:57:00,87.8,71.7,29.92,South,183,0.0,5.0,59,0.00,,CLR,0.00,VWS V14.01,2013-07-08 15:57:00,
2013-07-08 11:00:00,87.8,72.2,29.92,SE,143,0.0,5.0,60,0.00,,,0.00,VWS V14.01,2013-07-08 16:00:00,
2013-07-08 11:02:00,87.9,72.8,29.92,WNW,288,0.0,1.0,61,0.00,,CLR,0.00,VWS V14.01,2013-07-08 16:02:00,
2013-07-08 11:07:00,88.2,71.6,29.92,NW,304,0.0,1.0,58,0.00,,CLR,0.00,VWS V14.01,2013-07-08 16:07:00,
2013-07-08 11:12:00,88.7,73.0,29.91,WNW,298,0.0,2.0,60,0.00,,CLR,0.00,VWS V14.01,2013-07-08 16:12:00,
2013-07-08 11:18:00,89.3,72.1,29.91,NNE,22,0.0,2.0,57,0.00,,CLR,0.00,VWS V14.01,2013-07-08 16:18:00,
2013-07-08 11:23:00,89.7,70.9,29.91,West,270,0.0,3.0,54,0.00,,CLR,0.00,VWS V14.01,2013-07-08 16:23:00,
2013-07-08 11:28:00,90.2,70.8,29.91,ESE,119,2.0,3.0,53,0.00,,CLR,0.00,VWS V14.01,2013-07-08 16:28:00,
2013-07-08 11:30:00,90.2,69.1,29.91,East,80,5.0,5.0,50,0.00,,,0.00,VWS V14.01,2013-07-08 16:30:00,
2013-07-08 11:33:00,90.4,69.2,29.91,South,178,2.0,5.0,50,0.00,,CLR,0.00,VWS V14.01,2013-07-08 16:33:00,
2013-07-08 11:38:00,90.4,70.9,29.91,SE,131,0.0,5.0,53,0.00,,CLR,0.00,VWS V14.01,2013-07-08 16:38:00,
2013-07-08 11:43:00,90.6,70.0,29.91,SSE,163,2.0,5.0,51,0.00,,CLR,0.00,VWS V14.01,2013-07-08 16:43:00,
2013-07-08 11:49:00,90.2,69.6,29.91,ESE,115,1.0,5.0,51,0.00,,CLR,0.00,VWS V14.01,2013-07-08 16:49:00,
2013-07-08 11:54:00,89.7,68.6,29.91,ESE,121,0.0,5.0,50,0.00,,CLR,0.00,VWS V14.01,2013-07-08 16:54:00,
2013-07-08 11:59:00,89.5,69.6,29.90,SW,218,0.0,5.0,52,0.00,,CLR,0.00,VWS V14.01,2013-07-08 16:59:00,
2013-07-08 12:00:00,89.5,69.6,29.90,SW,218,0.0,5.0,52,0.00,,CLR,0.00,VWS V14.01,2013-07-08 17:00:00,
2013-07-08 12:04:00,89.4,68.3,29.90,SE,132,0.0,2.0,50,0.00,,CLR,0.00,VWS V14.01,2013-07-08 17:04:00,
2013-07-08 12:09:00,89.5,70.1,29.91,WSW,248,1.0,2.0,53,0.00,,CLR,0.00,VWS V14.01,2013-07-08 17:09:00,
2013-07-08 12:14:00,89.5,69.6,29.90,SSE,150,0.0,2.0,52,0.00,,CLR,0.00,VWS V14.01,2013-07-08 17:14:00,
2013-07-08 12:19:00,89.8,70.9,29.90,WSW,241,0.0,2.0,54,0.00,,CLR,0.00,VWS V14.01,2013-07-08 17:19:00,
2013-07-08 12:25:00,90.2,70.8,29.91,SSW,195,0.0,2.0,53,0.00,,CLR,0.00,VWS V14.01,2013-07-08 17:25:00,
2013-07-08 12:30:00,90.9,72.0,29.90,NW,305,0.0,0.0,54,0.00,,CLR,0.00,VWS V14.01,2013-07-08 17:30:00,
2013-07-08 12:35:00,91.7,70.4,29.90,West,274,0.0,1.0,50,0.00,,CLR,0.00,VWS V14.01,2013-07-08 17:35:00,
2013-07-08 12:41:00,92.0,70.7,29.90,SSE,161,1.0,2.0,50,0.00,,CLR,0.00,VWS V14.01,2013-07-08 17:41:00,
2013-07-08 12:46:00,92.2,69.7,29.90,SE,132,0.0,2.0,48,0.00,,CLR,0.00,VWS V14.01,2013-07-08 17:46:00,
2013-07-08 12:51:00,92.2,70.3,29.90,South,174,1.0,5.0,49,0.00,,CLR,0.00,VWS V14.01,2013-07-08 17:51:00,
2013-07-08 12:56:00,92.6,70.1,29.90,SSE,160,2.0,5.0,48,0.00,,CLR,0.00,VWS V14.01,2013-07-08 17:56:00,
2013-07-08 13:00:00,92.4,69.9,29.90,South,178,0.0,5.0,48,0.00,,,0.00,VWS V14.01,2013-07-08 18:00:00,
2013-07-08 13:02:00,92.2,69.7,29.90,South,181,0.0,2.0,48,0.00,,CLR,0.00,VWS V14.01,2013-07-08 18:02:00,
2013-07-08 13:08:00,92.0,70.1,29.90,SE,146,0.0,6.0,49,0.00,,CLR,0.00,VWS V14.01,2013-07-08 18:08:00,
2013-07-08 13:14:00,91.8,71.1,29.89,NE,48,0.0,6.0,51,0.00,,CLR,0.00,VWS V14.01,2013-07-08 18:14:00,
2013-07-08 13:19:00,92.0,70.1,29.89,WNW,294,0.0,6.0,49,0.00,,CLR,0.00,VWS V14.01,2013-07-08 18:19:00,
2013-07-08 13:25:00,92.2,72.6,29.89,SSE,168,1.0,6.0,53,0.00,,CLR,0.00,VWS V14.01,2013-07-08 18:25:00,
2013-07-08 13:30:00,92.6,71.8,29.89,SE,128,1.0,1.0,51,0.00,,CLR,0.00,VWS V14.01,2013-07-08 18:30:00,
2013-07-08 13:35:00,92.2,69.7,29.89,South,181,0.0,3.0,48,0.00,,CLR,0.00,VWS V14.01,2013-07-08 18:35:00,
2013-07-08 13:41:00,91.7,70.4,29.88,East,94,0.0,3.0,50,0.00,,CLR,0.00,VWS V14.01,2013-07-08 18:41:00,
2013-07-08 13:47:00,91.7,70.4,29.88,South,188,1.0,3.0,50,0.00,,CLR,0.00,VWS V14.01,2013-07-08 18:47:00,
2013-07-08 13:52:00,91.4,69.0,29.88,South,173,0.0,5.0,48,0.00,,CLR,0.00,VWS V14.01,2013-07-08 18:52:00,
2013-07-08 13:57:00,91.0,69.2,29.88,South,171,1.0,5.0,49,0.00,,CLR,0.00,VWS V14.01,2013-07-08 18:57:00,
2013-07-08 14:00:00,91.0,69.2,29.88,SE,143,0.0,5.0,49,0.00,,,0.00,VWS V14.01,2013-07-08 19:00:00,
2013-07-08 14:02:00,91.0,69.2,29.88,South,189,0.0,3.0,49,0.00,,CLR,0.00,VWS V14.01,2013-07-08 19:02:00,
2013-07-08 14:08:00,91.0,68.6,29.88,SE,146,1.0,3.0,48,0.00,,CLR,0.00,VWS V14.01,2013-07-08 19:08:00,
2013-07-08 14:14:00,90.9,67.9,29.88,SSE,157,0.0,3.0,47,0.00,,CLR,0.00,VWS V14.01,2013-07-08 19:14:00,
2013-07-08 14:19:00,90.7,68.3,29.88,SSE,157,0.0,3.0,48,0.00,,CLR,0.00,VWS V14.01,2013-07-08 19:19:00,
2013-07-08 14:24:00,90.5,68.2,29.88,ESE,114,1.0,3.0,48,0.00,,CLR,0.00,VWS V14.01,2013-07-08 19:24:00,
2013-07-08 14:29:00,90.4,69.8,29.87,South,179,0.0,3.0,51,0.00,,CLR,0.00,VWS V14.01,2013-07-08 19:29:00,
2013-07-08 14:30:00,90.4,69.8,29.87,South,179,0.0,3.0,51,0.00,,,0.00,VWS V14.01,2013-07-08 19:30:00,
2013-07-08 14:34:00,90.1,70.1,29.87,WSW,248,0.0,1.0,52,0.00,,CLR,0.00,VWS V14.01,2013-07-08 19:34:00,
2013-07-08 14:40:00,89.9,69.4,29.87,SW,236,0.0,1.0,51,0.00,,CLR,0.00,VWS V14.01,2013-07-08 19:40:00,
2013-07-08 14:46:00,89.8,69.8,29.87,SE,130,0.0,1.0,52,0.00,,FEW060,0.00,VWS V14.01,2013-07-08 19:46:00,
2013-07-08 14:51:00,90.0,68.3,29.87,SE,139,0.0,1.0,49,0.00,,FEW060,0.00,VWS V14.01,2013-07-08 19:51:00,
2013-07-08 14:56:00,90.1,70.1,29.87,SSW,200,0.0,2.0,52,0.00,,FEW060,0.00,VWS V14.01,2013-07-08 19:56:00,
2013-07-08 15:00:00,90.2,70.8,29.87,SW,227,1.0,2.0,53,0.00,,,0.00,VWS V14.01,2013-07-08 20:00:00,
2013-07-08 15:01:00,90.2,69.6,29.87,SW,219,0.0,1.0,51,0.00,,FEW060,0.00,VWS V14.01,2013-07-08 20:01:00,
2013-07-08 15:07:00,90.2,68.5,29.87,SE,136,0.0,2.0,49,0.00,,FEW060,0.00,VWS V14.01,2013-07-08 20:07:00,
2013-07-08 15:12:00,90.2,69.1,29.87,South,176,0.0,2.0,50,0.00,,FEW060,0.00,VWS V14.01,2013-07-08 20:12:00,
2013-07-08 15:17:00,90.3,68.6,29.86,WSW,243,0.0,2.0,49,0.00,,FEW060,0.00,VWS V14.01,2013-07-08 20:17:00,
2013-07-08 15:22:00,90.9,70.8,29.86,West,281,0.0,2.0,52,0.00,,FEW060,0.00,VWS V14.01,2013-07-08 20:22:00,
2013-07-08 15:28:00,91.6,71.5,29.86,ESE,118,1.0,2.0,52,0.00,,FEW060,0.00,VWS V14.01,2013-07-08 20:28:00,
2013-07-08 15:30:00,91.7,69.2,29.86,South,169,1.0,4.0,48,0.00,,,0.00,VWS V14.01,2013-07-08 20:30:00,
2013-07-08 15:34:00,91.8,69.3,29.86,WNW,282,1.0,2.0,48,0.00,,FEW060,0.00,VWS V14.01,2013-07-08 20:34:00,
2013-07-08 15:39:00,91.7,68.6,29.86,SE,134,3.0,3.0,47,0.00,,FEW060,0.00,VWS V14.01,2013-07-08 20:39:00,
2013-07-08 15:44:00,91.8,68.7,29.86,South,190,0.0,3.0,47,0.00,,CLR,0.00,VWS V14.01,2013-07-08 20:44:00,
2013-07-08 15:50:00,91.5,69.1,29.86,WNW,288,0.0,3.0,48,0.00,,CLR,0.00,VWS V14.01,2013-07-08 20:50:00,
2013-07-08 15:56:00,90.8,68.4,29.86,SW,232,0.0,3.0,48,0.00,,CLR,0.00,VWS V14.01,2013-07-08 20:56:00,
2013-07-08 16:00:00,90.6,68.8,29.86,ESE,115,0.0,3.0,49,0.00,,,0.00,VWS V14.01,2013-07-08 21:00:00,
2013-07-08 16:02:00,90.6,68.2,29.86,ESE,115,0.0,0.0,48,0.00,,CLR,0.00,VWS V14.01,2013-07-08 21:02:00,
2013-07-08 16:07:00,90.4,68.7,29.86,SW,227,1.0,2.0,49,0.00,,CLR,0.00,VWS V14.01,2013-07-08 21:07:00,
2013-07-08 16:12:00,90.5,69.9,29.86,ESE,122,1.0,2.0,51,0.00,,CLR,0.00,VWS V14.01,2013-07-08 21:12:00,
2013-07-08 16:17:00,90.4,68.7,29.86,South,186,0.0,2.0,49,0.00,,CLR,0.00,VWS V14.01,2013-07-08 21:17:00,
2013-07-08 16:23:00,90.5,68.8,29.86,SW,223,0.0,2.0,49,0.00,,CLR,0.00,VWS V14.01,2013-07-08 21:23:00,
2013-07-08 16:28:00,90.1,68.4,29.85,SW,226,0.0,2.0,49,0.00,,CLR,0.00,VWS V14.01,2013-07-08 21:28:00,
2013-07-08 16:30:00,90.0,68.9,29.85,SW,225,0.0,2.0,50,0.00,,,0.00,VWS V14.01,2013-07-08 21:30:00,
2013-07-08 16:33:00,89.8,69.8,29.85,SW,225,0.0,0.0,52,0.00,,CLR,0.00,VWS V14.01,2013-07-08 21:33:00,
2013-07-08 16:39:00,89.6,67.9,29.85,SW,225,0.0,1.0,49,0.00,,CLR,0.00,VWS V14.01,2013-07-08 21:39:00,
2013-07-08 16:45:00,89.7,67.4,29.85,SSE,148,0.0,1.0,48,0.00,,CLR,0.00,VWS V14.01,2013-07-08 21:45:00,
2013-07-08 16:51:00,89.6,68.5,29.85,South,175,0.0,1.0,50,0.00,,CLR,0.00,VWS V14.01,2013-07-08 21:51:00,
2013-07-08 16:56:00,89.3,69.4,29.85,South,175,0.0,1.0,52,0.00,,CLR,0.00,VWS V14.01,2013-07-08 21:56:00,
2013-07-08 17:00:00,89.1,67.5,29.85,South,175,0.0,1.0,49,0.00,,,0.00,VWS V14.01,2013-07-08 22:00:00,
2013-07-08 17:01:00,89.0,68.0,29.85,WNW,297,1.0,1.0,50,0.00,,CLR,0.00,VWS V14.01,2013-07-08 22:01:00,
2013-07-08 17:06:00,88.9,67.3,29.85,WNW,294,0.0,1.0,49,0.00,,CLR,0.00,VWS V14.01,2013-07-08 22:06:00,
2013-07-08 17:11:00,88.8,68.4,29.85,WNW,283,0.0,1.0,51,0.00,,CLR,0.00,VWS V14.01,2013-07-08 22:11:00,
2013-07-08 17:17:00,88.7,67.7,29.85,WNW,288,0.0,1.0,50,0.00,,CLR,0.00,VWS V14.01,2013-07-08 22:17:00,
2013-07-08 17:22:00,88.7,67.7,29.85,South,186,0.0,2.0,50,0.00,,CLR,0.00,VWS V14.01,2013-07-08 22:22:00,
2013-07-08 17:28:00,88.7,68.3,29.85,South,187,0.0,2.0,51,0.00,,CLR,0.00,VWS V14.01,2013-07-08 22:28:00,
2013-07-08 17:30:00,88.6,67.6,29.85,South,187,0.0,2.0,50,0.00,,,0.00,VWS V14.01,2013-07-08 22:30:00,
2013-07-08 17:33:00,88.7,68.8,29.85,SSW,204,0.0,1.0,52,0.00,,CLR,0.00,VWS V14.01,2013-07-08 22:33:00,
2013-07-08 17:39:00,88.6,68.7,29.84,SSW,204,0.0,1.0,52,0.00,,CLR,0.00,VWS V14.01,2013-07-08 22:39:00,
2013-07-08 17:44:00,88.6,68.7,29.84,SSW,204,0.0,1.0,52,0.00,,CLR,0.00,VWS V14.01,2013-07-08 22:44:00,
2013-07-08 17:50:00,88.4,68.6,29.84,SSW,204,0.0,1.0,52,0.00,,CLR,0.00,VWS V14.01,2013-07-08 22:50:00,
2013-07-08 17:56:00,88.3,69.6,29.84,SSW,204,0.0,1.0,54,0.00,,CLR,0.00,VWS V14.01,2013-07-08 22:56:00,
2013-07-08 18:00:00,88.3,69.6,29.84,SSW,204,0.0,1.0,54,0.00,,,0.00,VWS V14.01,2013-07-08 23:00:00,
2013-07-08 18:02:00,88.2,68.9,29.84,SSW,204,0.0,0.0,53,0.00,,CLR,0.00,VWS V14.01,2013-07-08 23:02:00,
2013-07-08 18:08:00,88.1,69.4,29.84,SSW,204,0.0,0.0,54,0.00,,CLR,0.00,VWS V14.01,2013-07-08 23:08:00,
2013-07-08 18:13:00,88.0,70.3,29.83,SSW,204,0.0,0.0,56,0.00,,CLR,0.00,VWS V14.01,2013-07-08 23:13:00,
2013-07-08 18:19:00,87.8,70.2,29.83,SSW,204,0.0,0.0,56,0.00,,CLR,0.00,VWS V14.01,2013-07-08 23:19:00,
2013-07-08 18:24:00,87.6,70.0,29.83,SSW,204,0.0,0.0,56,0.00,,CLR,0.00,VWS V14.01,2013-07-08 23:24:00,
2013-07-08 18:29:00,87.5,69.9,29.84,SSW,204,0.0,0.0,56,0.00,,CLR,0.00,VWS V14.01,2013-07-08 23:29:00,
2013-07-08 18:30:00,87.5,69.9,29.84,SSW,204,0.0,0.0,56,0.00,,,0.00,VWS V14.01,2013-07-08 23:30:00,
2013-07-08 18:34:00,87.4,70.3,29.84,SSW,204,0.0,0.0,57,0.00,,CLR,0.00,VWS V14.01,2013-07-08 23:34:00,
2013-07-08 18:39:00,87.2,70.1,29.83,SSW,204,0.0,0.0,57,0.00,,CLR,0.00,VWS V14.01,2013-07-08 23:39:00,
2013-07-08 18:45:00,87.1,70.0,29.84,SSW,204,0.0,0.0,57,0.00,,CLR,0.00,VWS V14.01,2013-07-08 23:45:00,
2013-07-08 18:50:00,86.9,69.8,29.83,SSW,204,0.0,0.0,57,0.00,,CLR,0.00,VWS V14.01,2013-07-08 23:50:00,
2013-07-08 18:55:00,86.7,70.2,29.84,SSW,204,0.0,0.0,58,0.00,,CLR,0.00,VWS V14.01,2013-07-08 23:55:00,
2013-07-08 19:00:00,86.4,69.9,29.84,SSW,204,0.0,0.0,58,0.00,,CLR,0.00,VWS V14.01,2013-07-09 00:00:00,
2013-07-08 19:06:00,86.2,70.2,29.84,SSW,204,0.0,0.0,59,0.00,,CLR,0.00,VWS V14.01,2013-07-09 00:06:00,
2013-07-08 19:11:00,86.0,70.5,29.83,SSW,204,0.0,0.0,60,0.00,,CLR,0.00,VWS V14.01,2013-07-09 00:11:00,
2013-07-08 19:17:00,85.9,70.4,29.83,SSW,204,0.0,0.0,60,0.00,,CLR,0.00,VWS V14.01,2013-07-09 00:17:00,
2013-07-08 19:22:00,85.8,70.3,29.83,SSW,204,0.0,0.0,60,0.00,,CLR,0.00,VWS V14.01,2013-07-09 00:22:00,
2013-07-08 19:28:00,85.7,70.7,29.83,SSW,204,0.0,0.0,61,0.00,,CLR,0.00,VWS V14.01,2013-07-09 00:28:00,
2013-07-08 19:30:00,85.7,70.7,29.83,SSW,204,0.0,0.0,61,0.00,,,0.00,VWS V14.01,2013-07-09 00:30:00,
2013-07-08 19:33:00,85.6,70.6,29.83,SSW,204,0.0,0.0,61,0.00,,CLR,0.00,VWS V14.01,2013-07-09 00:33:00,
2013-07-08 19:38:00,85.5,71.0,29.83,SSW,204,0.0,0.0,62,0.00,,CLR,0.00,VWS V14.01,2013-07-09 00:38:00,
2013-07-08 19:45:00,85.3,71.3,29.83,SSW,204,0.0,0.0,63,0.00,,CLR,0.00,VWS V14.01,2013-07-09 00:45:00,
2013-07-08 19:50:00,85.0,71.0,29.84,SSW,204,0.0,0.0,63,0.00,,CLR,0.00,VWS V14.01,2013-07-09 00:50:00,
2013-07-08 19:55:00,84.8,71.3,29.84,SSW,204,0.0,0.0,64,0.00,,CLR,0.00,VWS V14.01,2013-07-09 00:55:00,
2013-07-08 20:00:00,84.7,71.2,29.84,SSW,204,0.0,0.0,64,0.00,,,0.00,VWS V14.01,2013-07-09 01:00:00,
2013-07-08 20:01:00,84.6,71.6,29.84,SSW,204,0.0,0.0,65,0.00,,CLR,0.00,VWS V14.01,2013-07-09 01:01:00,
2013-07-08 20:07:00,84.3,71.7,29.84,SSW,204,0.0,0.0,66,0.00,,CLR,0.00,VWS V14.01,2013-07-09 01:07:00,
2013-07-08 20:12:00,84.1,71.5,29.84,SSW,204,0.0,0.0,66,0.00,,CLR,0.00,VWS V14.01,2013-07-09 01:12:00,
2013-07-08 20:18:00,83.9,71.3,29.83,SSW,204,0.0,0.0,66,0.00,,CLR,0.00,VWS V14.01,2013-07-09 01:18:00,
2013-07-08 20:23:00,83.6,71.1,29.83,SSW,204,0.0,0.0,66,0.00,,CLR,0.00,VWS V14.01,2013-07-09 01:23:00,
2013-07-08 20:29:00,83.4,71.3,29.84,SSW,204,0.0,0.0,67,0.00,,CLR,0.00,VWS V14.01,2013-07-09 01:29:00,
2013-07-08 20:30:00,83.4,71.3,29.84,SSW,204,0.0,0.0,67,0.00,,,0.00,VWS V14.01,2013-07-09 01:30:00,
2013-07-08 20:35:00,83.2,71.1,29.84,SSW,204,0.0,0.0,67,0.00,,CLR,0.00,VWS V14.01,2013-07-09 01:35:00,
2013-07-08 20:40:00,82.9,70.8,29.84,SSW,204,0.0,0.0,67,0.00,,CLR,0.00,VWS V14.01,2013-07-09 01:40:00,
2013-07-08 20:45:00,82.7,70.6,29.84,SSW,204,0.0,0.0,67,0.00,,CLR,0.00,VWS V14.01,2013-07-09 01:45:00,
2013-07-08 20:51:00,82.4,70.3,29.84,SSW,204,0.0,0.0,67,0.00,,CLR,0.00,VWS V14.01,2013-07-09 01:51:00,
2013-07-08 20:57:00,82.2,70.2,29.84,SSW,204,0.0,0.0,67,0.00,,CLR,0.00,VWS V14.01,2013-07-09 01:57:00,
2013-07-08 21:00:00,82.1,70.1,29.84,SSW,204,0.0,0.0,67,0.00,,,0.00,VWS V14.01,2013-07-09 02:00:00,
2013-07-08 21:02:00,82.0,70.0,29.84,SSW,204,0.0,0.0,67,0.00,,CLR,0.00,VWS V14.01,2013-07-09 02:02:00,
2013-07-08 21:07:00,81.9,69.9,29.84,SSW,204,0.0,0.0,67,0.00,,CLR,0.00,VWS V14.01,2013-07-09 02:07:00,
2013-07-08 21:12:00,81.7,69.7,29.84,SSW,204,0.0,0.0,67,0.00,,CLR,0.00,VWS V14.01,2013-07-09 02:12:00,
2013-07-08 21:17:00,81.5,69.9,29.84,SSW,204,0.0,0.0,68,0.00,,CLR,0.00,VWS V14.01,2013-07-09 02:17:00,
2013-07-08 21:23:00,81.3,69.7,29.84,SSW,204,0.0,0.0,68,0.00,,CLR,0.00,VWS V14.01,2013-07-09 02:23:00,
2013-07-08 21:28:00,81.1,70.0,29.84,SSW,204,0.0,0.0,69,0.00,,CLR,0.00,VWS V14.01,2013-07-09 02:28:00,
2013-07-08 21:30:00,81.0,69.9,29.85,SSW,204,0.0,0.0,69,0.00,,,0.00,VWS V14.01,2013-07-09 02:30:00,
2013-07-08 21:33:00,80.9,69.8,29.85,SSW,204,0.0,0.0,69,0.00,,CLR,0.00,VWS V14.01,2013-07-09 02:33:00,
2013-07-08 21:38:00,80.7,70.0,29.85,SSW,204,0.0,0.0,70,0.00,,CLR,0.00,VWS V14.01,2013-07-09 02:38:00,
2013-07-08 21:44:00,80.5,69.8,29.85,SSW,204,0.0,0.0,70,0.00,,CLR,0.00,VWS V14.01,2013-07-09 02:44:00,
2013-07-08 21:49:00,80.3,69.6,29.85,SSW,204,0.0,0.0,70,0.00,,CLR,0.00,VWS V14.01,2013-07-09 02:49:00,
2013-07-08 21:54:00,80.1,69.4,29.85,SSW,204,0.0,0.0,70,0.00,,CLR,0.00,VWS V14.01,2013-07-09 02:54:00,
2013-07-08 21:59:00,80.0,69.8,29.85,SSW,204,0.0,0.0,71,0.00,,CLR,0.00,VWS V14.01,2013-07-09 02:59:00,
2013-07-08 22:00:00,80.0,69.8,29.85,SSW,204,0.0,0.0,71,0.00,,,0.00,VWS V14.01,2013-07-09 03:00:00,
2013-07-08 22:05:00,79.8,69.6,29.86,SSW,204,0.0,0.0,71,0.00,,CLR,0.00,VWS V14.01,2013-07-09 03:05:00,
2013-07-08 22:10:00,79.7,69.9,29.86,SSW,204,0.0,0.0,72,0.00,,CLR,0.00,VWS V14.01,2013-07-09 03:10:00,
2013-07-08 22:15:00,79.5,69.7,29.86,SSW,204,0.0,1.0,72,0.00,,CLR,0.00,VWS V14.01,2013-07-09 03:15:00,
2013-07-08 22:21:00,79.5,69.7,29.86,SSW,204,0.0,1.0,72,0.00,,CLR,0.00,VWS V14.01,2013-07-09 03:21:00,
2013-07-08 22:26:00,79.5,70.1,29.87,SSW,204,0.0,1.0,73,0.00,,CLR,0.00,VWS V14.01,2013-07-09 03:26:00,
2013-07-08 22:30:00,79.6,70.2,29.87,SSW,204,0.0,1.0,73,0.00,,,0.00,VWS V14.01,2013-07-09 03:30:00,
2013-07-08 22:32:00,79.7,70.3,29.87,SSW,204,0.0,0.0,73,0.00,,CLR,0.00,VWS V14.01,2013-07-09 03:32:00,
2013-07-08 22:37:00,79.8,70.4,29.87,SSW,204,0.0,0.0,73,0.00,,CLR,0.00,VWS V14.01,2013-07-09 03:37:00,
2013-07-08 22:43:00,79.8,70.4,29.87,SSW,204,0.0,0.0,73,0.00,,CLR,0.00,VWS V14.01,2013-07-09 03:43:00,
2013-07-08 22:48:00,79.9,70.1,29.87,SSW,204,0.0,0.0,72,0.00,,CLR,0.00,VWS V14.01,2013-07-09 03:48:00,
2013-07-08 22:54:00,79.9,70.1,29.87,SSW,204,0.0,0.0,72,0.00,,CLR,0.00,VWS V14.01,2013-07-09 03:54:00,
2013-07-08 22:59:00,79.9,70.1,29.87,SSW,204,0.0,0.0,72,0.00,,CLR,0.00,VWS V14.01,2013-07-09 03:59:00,
2013-07-08 23:00:00,79.9,70.1,29.87,SSW,204,0.0,0.0,72,0.00,,,0.00,VWS V14.01,2013-07-09 04:00:00,
2013-07-08 23:01:00,79.8,70.0,29.87,SSW,204,0.0,0.0,72,0.00,,CLR,0.00,VWS V14.01,2013-07-09 04:01:00,
2013-07-08 23:02:00,79.9,70.5,29.87,SSW,204,0.0,0.0,73,0.00,,CLR,0.00,VWS V14.01,2013-07-09 04:02:00,
2013-07-08 23:04:00,79.8,70.4,29.87,SSW,204,0.0,0.0,73,0.00,,CLR,0.00,VWS V14.01,2013-07-09 04:04:00,
2013-07-08 23:09:00,79.8,70.4,29.87,SSW,204,0.0,0.0,73,0.00,,CLR,0.00,VWS V14.01,2013-07-09 04:09:00,
2013-07-08 23:14:00,79.7,70.3,29.86,SSW,204,0.0,0.0,73,0.00,,CLR,0.00,VWS V14.01,2013-07-09 04:14:00,
2013-07-08 23:19:00,79.6,70.2,29.87,SSW,204,0.0,0.0,73,0.00,,CLR,0.00,VWS V14.01,2013-07-09 04:19:00,
2013-07-08 23:24:00,79.6,70.2,29.87,SSW,204,0.0,0.0,73,0.00,,CLR,0.00,VWS V14.01,2013-07-09 04:24:00,
2013-07-08 23:29:00,79.5,70.5,29.87,SSW,204,0.0,0.0,74,0.00,,CLR,0.00,VWS V14.01,2013-07-09 04:29:00,
2013-07-08 23:30:00,79.5,70.5,29.87,SSW,204,0.0,0.0,74,0.00,,,0.00,VWS V14.01,2013-07-09 04:30:00,
2013-07-08 23:35:00,79.4,70.4,29.86,SSW,204,0.0,0.0,74,0.00,,CLR,0.00,VWS V14.01,2013-07-09 04:35:00,
2013-07-08 23:40:00,79.3,70.3,29.87,SSW,204,0.0,0.0,74,0.00,,CLR,0.00,VWS V14.01,2013-07-09 04:40:00,
2013-07-08 23:45:00,79.1,70.5,29.86,SSW,204,0.0,0.0,75,0.00,,CLR,0.00,VWS V14.01,2013-07-09 04:45:00,
2013-07-08 23:50:00,78.9,70.3,29.87,SSW,204,0.0,0.0,75,0.00,,CLR,0.00,VWS V14.01,2013-07-09 04:50:00,
2013-07-08 23:55:00,78.7,70.5,29.87,SSW,204,0.0,0.0,76,0.00,,CLR,0.00,VWS V14.01,2013-07-09 04:55:00,